Back to catalog

STARLINK-2430

AliveCommunicationsVLEO
NORAD 48100·PAYLOAD·🇺🇸 United States

Launched Apr 7, 2021 from Cape Canaveral Space Force Station

Loading…

Next Passes (next 24 hours)

TLE

FreshSource: CelesTrak SupGP

Epoch: Sep 14, 2026, 12:31 UTC

1 48100C 21027J   26257.52201389 -.00012461  00000+0 -40080-3 0  2574
2 48100  53.1605 353.7017 0001190  85.2757 161.2267 15.31702322    18

Track STARLINK-2430 in real time with AllMySat

Download on the App Store